ORBCOMM FM 39

Satellite information

Favourite Embed

Satellite Type and Status

PAYLOADIN ORBIT

Key statistics

Satellite ORBCOMM FM 39 at a glance.

Uptime

6228

Days in orbit

Revolutions

≈ 14.8

Per day

Orbit

LEO

Low Earth Orbit

Inclination

48.4

Latest

Satellite identification and parameters

Extended collection of information and parameters for ORBCOMM FM 39.

Object identification

Identified? True

Debris? False

Object name: ORBCOMM FM 39

International designator: 2008-031D

Object number (NORAD): 33063

Object ID (CCSDS): 33063

Country: ORBITAL TELECOMMUNICATIONS SATELLITE (GLOBALSTAR) (ORB)

Current information (Y/N): Y

RCS size: LARGE

Orbital parameters

Period: 97.323 minutes

Inclination: 48.4403 deg

SMA: 7008.683 km

Apoapsis: 634.74 km

Periapsis: 626.357 km

RAAN: 259.9004 deg

Eccentricy: 0.000598

Argument of periapsis: 80.1382 deg

Mean anomaly: 280.0207 deg

Mean motion: 14.79612859 rev/day

Mean motion (dot): 0.00000911 rev/day2

B* drag term: 0.0001483 1/REarth

Two-line elements (TLE)

Creation date: July 7, 2025, 6:34 p.m.

Reference frame: TEME

Reference center: EARTH

Epoch: July 7, 2025, 5:16 a.m. UTC

TLE line 0: 0 ORBCOMM FM 39

TLE line 1: 1 33063U 08031D 25188.22005651 .00000911 00000-0 14830-3 0 9992

TLE line 2: 2 33063 48.4403 259.9004 0005980 80.1382 280.0207 14.79612859916763

Live tracking on map

Real-time ground track for satellite ORBCOMM FM 39.

In-orbit conjunctions

A list of the most updated potential collisions computed for object ORBCOMM FM 39.

Target Orbit TCA Probability of collision Miss distance Type
CZ-6A DEB SSO 2025-06-05 21:48:49 0.0001175872 999.0 (m) DEBRIS
CZ-4B DEB SSO 2024-12-15 08:30:38 0.0001276582 675.0 (m) DEBRIS

Associated space launch

LEO communications satellites

ORBCOMM FM 39 was lifted into orbit during the mission ‘Kosmos-3M | Orbcomm FM 37 to 41 & CDS 3’, on board a Kosmos-3M space rocket.

The launch took place on June 19, 2008, 6:36 a.m. from 107.

For more information about the launch, click the button.

Launch to space Kosmos-3M | Orbcomm FM 37 to 41 & CDS 3
Kosmos-3M | Orbcomm FM 37 to 41 & CDS 3

Agency: N/A

Status: Launch Successful

Launch date: June 19, 2008, 6:36 a.m. UTC

Rocket: Kosmos-3M

Launch pad: 107

Location: Kapustin Yar, Russian Federation

...

Latest news about this satellite

There are no fresh news available about this satellite. Check back as we update our databases every day.


Newsletter sign-up

Weekly statistics, charts and insights to help you stay on top of the space industry.